This is the latest recevied weather packets stored in our database for station/object N3LF. If no packets are shown the sender has not sent any weather packets the latest 10 day(s).
| Time | Temp. | Humidity | Pressure | Rain* | Wind** | Luminosity | Snow |
|---|---|---|---|---|---|---|---|
| 1777951520 | 19.44° C | 58% | 1012.4 hPa | 0 mm | - | 0 W/m² | - |
| 1777951216 | 19.44° C | 59% | 1012.4 hPa | 0 mm | - | 0 W/m² | - |
| 1777950914 | 20° C | 57% | 1012.4 hPa | 0 mm | - | 0 W/m² | - |
| 1777950610 | 20° C | 57% | 1012.3 hPa | 0 mm | - | 0 W/m² | - |
| 1777950307 | 20° C | 57% | 1012.4 hPa | 0 mm | - | 0 W/m² | - |
| 1777950002 | 19.44° C | 56% | 1012.2 hPa | 0 mm | - | 0 W/m² | - |
| 1777949699 | 20° C | 61% | 1012.1 hPa | 0 mm | - | 0 W/m² | - |
| 1777949398 | 20° C | 57% | 1012.1 hPa | 0 mm | - | 0 W/m² | - |
| 1777949094 | 19.44° C | 60% | 1012.2 hPa | 0 mm | - | 0 W/m² | - |
| 1777948792 | 19.44° C | 61% | 1012.2 hPa | 0 mm | - | 0 W/m² | - |
| 1777948488 | 19.44° C | 61% | 1012.1 hPa | 0 mm | - | 0 W/m² | - |
| 1777948186 | 18.89° C | 60% | 1012.2 hPa | 0 mm | - | 0 W/m² | - |
| 1777947883 | 18.89° C | 64% | 1012.1 hPa | 0 mm | - | 0 W/m² | - |
| 1777947581 | 18.89° C | 62% | 1012.1 hPa | 0 mm | - | 0 W/m² | - |
| 1777947277 | 18.89° C | 62% | 1012 hPa | 0 mm | - | 0 W/m² | - |
| 1777946972 | 19.44° C | 63% | 1012 hPa | 0 mm | - | 0 W/m² | - |
| 1777946668 | 19.44° C | 62% | 1011.9 hPa | 0 mm | - | 0 W/m² | - |
| 1777946365 | 19.44° C | 60% | 1011.7 hPa | 0 mm | - | 0 W/m² | - |
| 1777946062 | 19.44° C | 58% | 1011.8 hPa | 0 mm | - | 0 W/m² | - |
| 1777945760 | 20° C | 57% | 1011.7 hPa | 0 mm | - | 0 W/m² | - |
| 1777945456 | 20° C | 60% | 1011.6 hPa | 0 mm | - | 0 W/m² | - |
| 1777945153 | 20° C | 57% | 1011.8 hPa | 0 mm | - | 0 W/m² | - |
| 1777944850 | 20° C | 59% | 1011.7 hPa | 0 mm | - | 0 W/m² | - |
| 1777944548 | 20° C | 58% | 1011.8 hPa | 0 mm | - | 0 W/m² | - |
| 1777944246 | 20.56° C | 56% | 1011.6 hPa | 0 mm | - | 0 W/m² | - |
* Rain latest hour (hover to see other rain measurements)
** Current wind speed in m/s (hover to see current wind gust speed)